User: anonymous   Login
Location: Paderno d�Adda
(45.6667°N, 9.4333°E)
Time: 02:19:16
(UTC+00:00)
Language:

Cosmos 2279 Rocket - Orbit

View from above orbital plane
View from above orbital plane
View from above satellite
View from above satellite

Ground track
Ground track

The orbit data is extracted from the following two-line orbital elements,

1 23093U 94024B   20334.51287044  .00000025  00000-0  98187-5 0  9994
2 23093  82.9472 256.2262 0011537  70.6267 289.6137 13.77835107805114
Epoch (UTC): 29 November 2020 12:18:32
Eccentricity: 0.0011537
inclination: 82.9472°
perigee height: 963 km
apogee height: 980 km
right ascension of ascending node: 256.2262°
argument of perigee: 70.6267°
revolutions per day: 13.77835107
mean anomaly at epoch: 289.6137°
orbit number at epoch: 80511

The dashed part of the orbit path shows where the satellite is in the earth's shadow,  

DLR